Wind_Speed
20 20 20 21 21 20 20 21 22 24 24 24 25 25 26 26 27 28 28 29 30 30 30 30 30 31 30 31 31 31 31 31 31 32 32 32 33 33 32 32 32 33 33
20 20 21 20 20 21 21 22 23 23 24 25 26 25 26 27 28 29 30 31 31 30 31 31 32 32 32 32 33 33 32 32 32 32 33 33 34 34 33 33 33 33 34
20 20 19 19 19 21 21 23 23 24 25 26 26 27 27 28 29 30 30 31 31 31 31 32 32 32 32 32 32 33 33 33 32 32 33 33 32 33 33 33 33 33 34
19 18 18 19 20 21 22 23 24 25 27 27 26 27 28 29 29 30 30 30 31 32 32 32 32 32 32 32 32 32 32 32 32 32 32 32 32 32 32 33 33 34 35
19 19 19 20 21 23 23 24 25 26 27 27 26 27 29 29 29 29 29 29 30 30 31 31 32 32 31 31 31 31 31 31 32 32 32 32 32 32 33 33 33 34 34
20 19 20 22 23 23 24 24 26 26 27 26 26 27 28 28 29 29 29 29 29 29 29 30 30 30 30 29 29 29 30 30 29 30 31 31 32 32 33 32 32 32 33
20 21 22 22 23 24 24 25 26 26 26 26 26 27 28 27 28 28 28 28 28 29 29 29 28 29 29 28 29 29 29 29 28 29 29 30 31 31 31 31 30 30 31
20 21 22 23 24 24 24 24 25 25 25 26 26 26 26 26 26 27 28 29 29 29 29 28 28 28 28 28 28 28 27 28 28 28 29 29 30 30 30 30 30 30 30
20 21 22 23 23 23 23 23 23 23 24 24 25 25 25 25 25 26 27 27 28 28 28 27 27 27 27 27 27 27 26 26 27 27 27 28 28 29 29 30 30 29 28
20 21 21 22 22 22 22 23 23 24 23 23 23 23 24 25 25 25 25 26 26 26 25 25 26 24 24 25 25 25 25 26 26 26 26 27 27 28 28 28 29 29 29
20 20 20 19 20 21 22 23 23 23 23 23 23 23 24 24 24 24 24 24 24 24 24 24 24 24 23 24 24 24 25 25 25 26 26 26 26 26 26 26 27 27 27
19 18 18 18 20 20 22 23 23 23 23 22 23 23 23 23 23 23 24 24 23 24 24 23 23 23 23 23 23 24 24 24 24 25 25 25 25 25 25 25 25 26 26
17 18 18 19 19 20 22 23 23 22 22 22 22 23 23 23 23 23 23 23 22 22 22 22 22 22 23 23 23 24 23 23 23 23 23 24 24 25 24 24 24 24 25
17 18 18 18 19 21 22 23 21 21 21 22 22 22 22 22 22 22 22 22 22 21 22 21 21 22 21 21 22 21 21 21 21 21 21 22 23 23 23 23 23 23 24
18 18 18 18 19 20 20 20 20 20 20 21 22 22 22 22 21 21 21 21 21 21 21 21 20 20 19 18 18 19 20 19 19 19 20 20 21 22 23 23 22 22 22
18 18 18 18 18 19 19 19 19 20 20 21 21 21 21 20 19 19 19 19 19 20 19 19 18 17 17 17 17 18 18 18 18 19 19 19 20 20 21 21 22 22 22
18 17 17 16 17 18 18 18 19 19 19 19 19 19 18 18 17 17 17 17 18 17 17 16 17 16 16 16 16 16 17 18 19 19 19 19 20 20 20 20 20 21 21
16 15 16 16 16 16 17 18 18 18 18 17 17 17 17 16 16 16 16 16 16 16 16 16 16 16 16 16 16 16 17 18 18 19 20 20 20 20 20 19 19 19 20
14 14 14 14 14 15 16 17 16 17 16 16 16 15 15 15 16 15 16 16 16 16 16 16 16 16 16 16 17 17 17 18 19 19 20 20 20 20 20 20 19 19 18
11 13 13 13 13 14 15 15 15 15 15 15 14 14 14 15 15 15 16 16 16 16 17 17 17 17 16 16 18 18 18 18 19 19 19 19 19 19 20 19 19 18 17
10 11 11 12 12 13 13 14 13 14 14 14 13 14 14 15 15 15 16 16 17 17 17 17 17 17 16 17 18 18 18 18 18 18 18 18 18 18 17 16 16 16 16
9 9 10 11 11 11 11 12 12 12 13 14 14 14 14 14 15 16 16 17 17 17 18 17 18 18 18 18 17 17 17 17 17 17 17 17 17 16 15 15 15 15 16
8 8 9 9 9 9 10 11 11 12 13 14 14 14 15 15 16 17 17 17 17 18 18 18 18 18 18 18 18 18 18 17 16 16 17 17 16 16 15 15 15 15 15
6 6 7 8 8 8 9 11 12 13 13 13 14 15 15 16 17 17 18 18 18 18 19 19 19 19 18 19 19 19 18 18 17 18 17 16 15 16 16 16 16 15 14
5 6 7 8 8 8 9 11 12 13 13 14 14 15 16 17 17 18 19 19 19 19 19 19 20 19 19 19 19 19 18 18 17 17 18 17 16 16 17 17 16 15 15
4 5 6 7 7 8 10 11 12 12 14 14 15 16 17 18 18 19 19 19 19 19 20 19 20 20 19 18 19 19 19 18 18 18 18 18 17 16 16 17 16 16 16
Wind_Direction
282 285 288 289 288 287 287 288 289 289 290 288 286 285 284 284 284 284 283 284 284 284 284 284 283 283 282 281 281 279 278 276 274 274 273 272 271 270 267 266 265 264 262
286 288 288 287 289 290 290 292 293 291 289 289 287 284 284 284 283 284 284 284 284 285 284 284 285 283 283 283 282 280 278 276 274 273 273 272 272 270 268 266 265 263 263
289 286 287 291 293 296 297 295 294 294 292 290 289 286 285 285 285 285 284 284 284 284 284 283 283 283 283 285 284 281 278 277 275 275 274 273 271 269 268 267 266 265 264
291 288 289 292 294 297 299 298 297 297 296 292 289 287 287 288 288 287 287 286 286 285 284 283 285 285 285 285 284 281 278 277 276 276 275 274 273 270 266 267 267 265 264
292 290 290 293 294 297 300 300 301 301 300 296 292 292 290 289 288 288 288 287 288 288 287 286 285 285 285 284 283 281 278 278 277 276 276 275 274 272 269 266 265 264 263
289 290 292 293 294 296 299 301 303 304 302 297 296 293 291 289 289 288 288 288 289 289 288 287 286 286 286 285 282 280 280 280 277 277 276 275 274 272 271 269 267 265 264
289 289 292 294 295 296 299 301 304 306 304 299 297 296 294 293 292 290 289 289 289 288 287 288 287 285 286 287 284 282 281 279 278 277 276 276 275 273 273 271 269 266 264
291 291 293 294 296 298 300 302 305 306 306 301 299 299 298 297 295 294 292 291 290 290 290 289 288 286 286 287 287 283 281 280 280 279 277 276 276 275 274 271 269 267 265
294 294 295 295 298 300 302 304 306 308 308 305 302 302 302 300 299 298 297 296 295 293 290 289 290 289 289 287 287 285 282 281 281 281 280 278 276 277 275 273 271 269 268
297 297 298 299 303 301 302 304 307 308 310 309 308 306 304 303 302 300 298 298 296 296 294 294 291 290 290 289 289 287 284 282 280 282 281 279 277 277 275 273 272 271 270
300 301 301 302 303 303 303 305 309 311 312 312 310 310 309 307 305 304 303 302 301 299 296 295 293 291 291 292 291 288 288 286 283 283 282 279 278 277 275 274 273 273 271
303 303 304 303 303 304 306 308 311 312 313 312 311 312 311 310 308 307 306 305 304 302 300 297 295 293 292 293 294 291 290 289 287 285 283 279 276 277 276 276 275 274 273
304 304 304 305 304 305 307 310 311 313 314 315 315 314 312 312 311 311 310 308 307 305 303 299 296 293 294 293 294 294 293 292 289 287 285 281 278 277 277 276 276 276 275
301 304 306 307 307 307 309 311 314 317 317 317 317 316 315 314 313 312 312 311 309 307 305 302 299 298 297 296 295 296 295 295 293 291 288 285 283 282 280 278 277 277 276
298 300 304 306 309 311 313 315 317 318 318 319 320 318 316 315 315 316 315 315 313 312 311 309 306 304 300 296 299 299 296 295 295 295 294 291 289 287 283 282 280 280 278
299 300 301 305 308 312 314 316 317 319 320 321 320 320 320 320 319 318 319 319 318 317 317 315 312 309 307 304 301 301 299 297 297 298 299 297 295 293 290 287 286 284 281
300 303 305 308 310 314 318 320 322 324 323 323 324 326 327 327 325 324 325 326 326 325 322 321 320 317 313 309 307 307 309 304 298 298 299 298 298 297 294 290 288 285 282
298 301 305 308 312 318 322 324 325 327 328 329 329 332 333 335 335 332 334 334 335 335 332 328 323 321 319 315 314 313 312 311 309 304 301 300 301 300 297 293 289 287 284
300 302 306 310 316 322 328 331 329 331 333 333 334 335 337 339 341 341 342 342 342 343 342 338 332 328 323 322 321 318 316 316 313 310 307 304 301 300 299 296 293 289 286
302 304 307 314 319 325 331 336 337 339 340 341 341 340 341 344 344 345 347 347 348 347 347 344 340 336 330 327 323 320 318 317 316 314 311 309 306 303 302 297 293 291 287
305 307 313 319 324 329 333 338 341 344 345 346 346 346 347 349 349 348 347 348 349 349 348 347 344 339 336 334 329 325 323 320 318 317 314 311 310 307 307 305 300 295 292
314 316 322 327 332 337 342 345 347 349 349 348 348 348 347 350 351 351 350 349 348 347 347 347 346 343 341 339 335 332 329 327 325 323 320 317 317 315 313 312 310 302 296
320 322 325 331 340 346 349 351 352 351 350 350 351 351 351 350 352 351 350 349 349 348 347 346 345 344 341 340 339 337 335 333 332 331 329 325 322 320 315 311 311 307 301
330 334 336 338 347 350 353 355 355 353 353 353 354 355 354 353 352 351 350 348 347 346 345 345 344 343 342 342 341 341 338 336 332 330 330 327 324 322 320 317 313 308 305
323 335 339 346 354 353 353 356 358 357 354 352 352 352 352 352 351 351 351 350 348 347 347 347 347 345 342 342 341 343 341 339 336 334 332 329 326 322 320 318 319 314 309
314 335 342 351 357 355 355 355 357 357 354 350 350 351 351 350 350 351 351 351 350 349 348 348 349 348 345 344 343 343 342 340 337 336 335 332 328 325 324 322 318 314 311
Height
5840 5839 5837 5836 5834 5833 5831 5830 5828 5827 5824 5822 5821 5819 5818 5817 5815 5813 5812 5811 5809 5807 5805 5803 5802 5800 5799 5797 5796 5795 5793 5792 5792 5791 5791 5790 5789 5789 5789 5789 5789 5789 5789
5836 5834 5833 5831 5830 5828 5826 5825 5823 5821 5818 5816 5814 5812 5811 5810 5809 5807 5805 5804 5802 5800 5798 5797 5795 5793 5791 5790 5788 5787 5785 5784 5783 5783 5782 5782 5781 5780 5780 5780 5780 5780 5781
5831 5829 5828 5826 5825 5824 5822 5820 5818 5815 5813 5810 5808 5806 5804 5803 5802 5800 5798 5796 5794 5792 5790 5788 5787 5785 5783 5781 5780 5778 5776 5775 5774 5774 5773 5773 5772 5772 5772 5771 5771 5771 5771
5826 5825 5823 5822 5820 5819 5817 5815 5812 5809 5807 5804 5802 5800 5798 5796 5795 5793 5791 5789 5787 5785 5783 5781 5779 5777 5775 5773 5771 5769 5768 5767 5766 5765 5764 5764 5763 5763 5763 5763 5762 5762 5762
5822 5820 5819 5817 5815 5813 5811 5809 5806 5803 5800 5798 5795 5793 5791 5789 5787 5785 5783 5781 5779 5777 5775 5773 5771 5769 5767 5765 5763 5761 5759 5758 5757 5756 5755 5755 5754 5753 5754 5754 5753 5753 5752
5817 5815 5814 5812 5810 5808 5806 5803 5800 5797 5794 5791 5789 5786 5784 5782 5780 5778 5776 5774 5772 5770 5767 5765 5763 5761 5758 5756 5754 5752 5751 5750 5749 5747 5746 5746 5745 5744 5744 5744 5744 5744 5743
5812 5811 5809 5807 5805 5803 5800 5798 5794 5791 5788 5785 5782 5780 5777 5775 5773 5770 5768 5766 5764 5762 5759 5757 5755 5753 5751 5748 5746 5744 5743 5741 5740 5739 5738 5737 5736 5735 5735 5735 5734 5735 5735
5807 5805 5804 5802 5800 5797 5795 5791 5788 5785 5782 5779 5776 5773 5770 5768 5765 5763 5761 5759 5756 5754 5752 5749 5747 5745 5743 5741 5739 5737 5735 5733 5732 5731 5730 5729 5727 5726 5725 5725 5725 5725 5726
5802 5800 5798 5796 5794 5791 5789 5786 5783 5780 5777 5773 5770 5767 5764 5761 5758 5756 5754 5751 5749 5746 5744 5741 5739 5737 5735 5733 5731 5729 5727 5725 5724 5723 5721 5720 5719 5718 5716 5716 5716 5716 5716
5797 5795 5793 5790 5788 5786 5783 5780 5778 5774 5771 5768 5764 5761 5758 5755 5752 5750 5747 5744 5741 5739 5736 5734 5732 5730 5728 5725 5723 5721 5719 5718 5716 5715 5714 5712 5711 5710 5709 5708 5707 5707 5707
5792 5790 5788 5786 5783 5781 5778 5775 5772 5769 5766 5763 5759 5756 5753 5749 5746 5743 5740 5737 5735 5732 5730 5727 5725 5723 5721 5719 5716 5714 5712 5711 5709 5708 5706 5705 5704 5702 5701 5700 5699 5699 5698
5788 5785 5783 5781 5779 5776 5773 5770 5767 5764 5761 5758 5754 5751 5747 5744 5741 5738 5735 5732 5729 5726 5723 5721 5719 5717 5715 5712 5710 5708 5706 5704 5703 5701 5699 5698 5697 5695 5694 5693 5692 5691 5690
5783 5781 5779 5777 5774 5771 5769 5766 5762 5759 5756 5753 5749 5746 5742 5739 5736 5732 5729 5726 5723 5720 5717 5715 5713 5710 5708 5706 5704 5702 5700 5698 5696 5695 5693 5691 5690 5688 5687 5686 5685 5684 5683
5779 5777 5775 5772 5769 5766 5764 5761 5757 5754 5751 5748 5744 5741 5737 5734 5731 5727 5724 5721 5718 5715 5712 5709 5707 5705 5702 5700 5699 5697 5695 5693 5690 5689 5687 5685 5683 5681 5680 5679 5678 5677 5676
5775 5773 5770 5768 5765 5762 5759 5756 5753 5750 5747 5743 5740 5736 5733 5729 5726 5722 5719 5716 5713 5710 5707 5704 5702 5699 5697 5695 5693 5692 5689 5688 5685 5683 5681 5679 5677 5675 5674 5673 5671 5670 5669
5770 5768 5766 5764 5761 5758 5755 5752 5749 5746 5742 5739 5736 5732 5728 5725 5721 5718 5715 5712 5709 5706 5703 5700 5697 5695 5693 5691 5689 5687 5684 5682 5680 5678 5676 5674 5672 5670 5668 5667 5665 5664 5663
5766 5764 5762 5760 5758 5755 5752 5749 5745 5742 5738 5735 5732 5728 5725 5721 5718 5715 5712 5709 5705 5702 5699 5696 5694 5691 5689 5687 5684 5682 5680 5678 5676 5674 5671 5669 5667 5665 5663 5661 5660 5658 5657
5762 5761 5759 5756 5754 5752 5749 5745 5742 5738 5735 5731 5729 5725 5722 5719 5716 5712 5709 5706 5703 5699 5696 5693 5690 5688 5686 5683 5681 5679 5677 5674 5672 5669 5667 5665 5662 5660 5658 5656 5654 5653 5651
5758 5757 5755 5753 5751 5749 5746 5743 5739 5736 5732 5729 5726 5723 5720 5717 5714 5711 5708 5705 5701 5698 5694 5691 5688 5685 5683 5680 5678 5675 5673 5670 5668 5665 5663 5660 5658 5656 5653 5651 5649 5647 5646
5755 5754 5753 5751 5749 5747 5744 5741 5737 5734 5731 5728 5725 5722 5719 5716 5712 5710 5707 5703 5700 5697 5693 5690 5686 5683 5680 5678 5675 5672 5669 5667 5664 5661 5658 5656 5653 5651 5648 5646 5644 5643 5641
5753 5752 5750 5749 5747 5744 5742 5739 5736 5733 5730 5727 5724 5721 5717 5715 5712 5708 5705 5702 5699 5695 5692 5688 5685 5682 5678 5675 5672 5669 5666 5663 5660 5657 5654 5651 5649 5646 5644 5641 5640 5638 5636
5751 5750 5749 5747 5745 5742 5740 5738 5735 5732 5729 5726 5723 5720 5717 5714 5711 5708 5704 5701 5698 5694 5691 5687 5683 5680 5677 5673 5670 5666 5663 5660 5657 5653 5650 5647 5645 5642 5640 5637 5635 5634 5632
5750 5748 5747 5746 5743 5741 5739 5737 5734 5731 5728 5725 5722 5719 5716 5713 5710 5707 5703 5700 5696 5693 5689 5685 5682 5678 5674 5671 5667 5664 5660 5657 5654 5650 5647 5644 5641 5638 5636 5634 5631 5630 5628
5748 5747 5746 5744 5742 5740 5738 5736 5733 5730 5728 5725 5722 5719 5716 5712 5709 5706 5702 5698 5695 5691 5687 5684 5680 5676 5672 5669 5665 5661 5658 5655 5651 5648 5644 5641 5638 5635 5633 5630 5628 5626 5624
5747 5746 5745 5743 5741 5740 5738 5735 5733 5730 5727 5724 5721 5718 5715 5712 5708 5705 5701 5697 5693 5689 5686 5682 5678 5674 5670 5667 5663 5659 5656 5652 5649 5645 5642 5638 5635 5633 5630 5627 5624 5622 5620
5746 5745 5744 5742 5741 5739 5737 5735 5732 5729 5726 5723 5721 5717 5714 5711 5707 5704 5700 5695 5691 5687 5684 5680 5676 5672 5668 5665 5661 5657 5653 5649 5646 5642 5639 5635 5632 5629 5626 5624 5621 5619 5616